Location: Poughquag
(41.6090°N, 73.6820°W)
Time: 11:25:28
(UTC-05:00)

Envisat - Pass Details

Date: 21 January 2020
Orbit: 764 x 766 km, 98.1° (Epoch: 24 February)

Event Time Altitude Azimuth Distance (km) Brightness Sun altitude
Rises 18:15:30 0° 183° (S) 3,218 6.5 -14.7°
Reaches altitude 10° 18:17:53 10° 190° (S) 2,296 5.8 -15.2°
Maximum altitude 18:22:42 44° 262° (W) 1,059 4.3 -16.1°
Drops below altitude 10° 18:27:33 10° 334° (NNW) 2,312 5.7 -16.9°
Sets 18:29:59 0° 341° (NNW) 3,242 6.3 -17.4°
